Location: Atherton
(17.2661°S, 145.4859°E)
Time: 05:36:04
(UTC+10:00)

Courier 1B - Visible Passes

Search period start: 18 June 2025 00:00
Search period end: 28 June 2025 00:00
Orbit: 962 x 1208 km, 28.3° (Epoch: 17 June)

Date Brightness Start Highest point End Pass type
(mag) Time Alt. Az. Time Alt. Az. Time Alt. Az.
18 Jun 9.7 18:30:16 10° W 18:36:19 28° NNW 18:42:04 10° NNE visible
19 Jun 10.2 06:09:38 10° N 06:14:01 17° NNE 06:18:34 10° ENE visible
20 Jun 10.5 05:18:31 10° NNE 05:20:06 11° NE 05:21:42 10° NE visible
20 Jun 10.2 18:38:34 10° WNW 18:42:25 15° NNW 18:46:09 10° N visible
21 Jun 9.6 06:14:01 10° NNW 06:20:06 31° NNE 06:26:31 10° E visible
22 Jun 9.9 05:21:09 10° NNW 05:26:14 22° NNE 05:31:33 10° E visible
23 Jun 10.1 04:28:54 10° N 04:32:22 14° NNE 04:35:56 10° ENE visible
23 Jun 8.6 06:19:25 10° NW 06:26:12 54° NNE 06:33:25 10° ESE visible
24 Jun 9.0 05:26:03 10° NW 05:32:19 39° NNE 05:38:58 10° E visible
25 Jun 9.3 04:33:21 12° NNW 04:38:29 27° NNE 04:44:18 10° E visible
26 Jun 9.6 03:44:04 19° NNE 03:44:41 19° NNE 03:49:15 10° ENE visible
26 Jun 8.0 05:31:45 10° NW 05:38:27 67° NNE 05:45:38 10° ESE visible
27 Jun 8.3 04:41:37 30° NNW 04:44:36 49° NNE 04:51:20 10° ESE visible
